Weather reports worldwide

Advertisment
Angermünde, Germany (10291): temperature & dewpoint: 29.05.2020 19:00:00 - 04.06.2020 19:00:00 (CEST)Angermünde, Germany (10291): temperature 5cm & temperature -5cm: 29.05.2020 19:00:00 - 04.06.2020 19:00:00 (CEST)Angermünde, Germany (10291): temperature -20cm & temperature -100cm: 29.05.2020 19:00:00 - 04.06.2020 19:00:00 (CEST)Angermünde, Germany (10291): wind speed & gusts: 29.05.2020 19:00:00 - 04.06.2020 19:00:00 (CEST)Angermünde, Germany (10291): wind direction: 29.05.2020 19:00:00 - 04.06.2020 19:00:00 (CEST)Angermünde, Germany (10291): reduced air pressure: 29.05.2020 19:00:00 - 04.06.2020 19:00:00 (CEST)Angermünde, Germany (10291): visibility: 29.05.2020 19:00:00 - 04.06.2020 19:00:00 (CEST)Angermünde, Germany (10291): sunshine duration: 29.05.2020 19:00:00 - 04.06.2020 19:00:00 (CEST)Angermünde, Germany (10291): precipitation: 29.05.2020 19:00:00 - 04.06.2020 19:00:00 (CEST)
Date & Time tt [°C] td [°C] tt 5cm [°C] tt -5cm [°C] tt -20cm [°C] tt -100cm [°C] ff [km/h] ff [kn] fx [km/h] fx [kn] dd ppp [hPa] vv [km] sd [min] rr [mm]
04.06.2020 19:00:00 20,7 10,7 20,8 23,1 22,0 15,5 15 8 40 22 SSW 992,7 58 0 0,0
04.06.2020 18:00:00 22,7 5,8 22,7 24,5 22,0 15,5 18 10 33 18 SE 992,6 70 0 0,0
04.06.2020 17:00:00 23,1 5,9 24,4 25,7 21,9 15,5 22 12 40 22 ESE 993,2 55 1 0,0
04.06.2020 16:00:00 23,3 4,7 25,5 26,9 21,6 15,5 22 12 40 22 SE 994,1 57 30 0,0
04.06.2020 15:00:00 22,7 4,3 24,8 26,1 21,2 15,5 24 13 40 21 ESE 995,0 55 5 0,0
04.06.2020 14:00:00 22,7 5,0 25,3 26,0 20,8 15,4 22 12 41 22 ESE 995,5 41 7 0,0
04.06.2020 13:00:00 22,7 4,6 25,5 25,5 20,3 15,4 21 11 39 21 ESE 995,9 72 3 0,0
04.06.2020 12:00:00 22,0 5,8 25,4 25,9 19,7 15,4 19 11 35 19 SE 996,4 57 17 0,0
04.06.2020 11:00:00 21,7 4,7 24,8 24,9 19,0 15,4 21 12 36 20 SE 997,1 58 55 0,0
04.06.2020 10:00:00 20,2 5,7 23,2 22,1 18,5 15,4 17 9 29 16 SE 997,6 74 60 0,0
04.06.2020 09:00:00 17,0 6,6 19,4 19,7 18,2 15,3 11 6 23 12 SE 998,2 63 60 0,0
04.06.2020 08:00:00 14,5 6,3 16,3 16,7 18,2 15,3 8 5 14 8 ESE 998,6 47 48 0,0
04.06.2020 07:00:00 11,9 7,4 11,6 15,2 18,4 15,3 5 3 10 5 E 999,0 55 2 0,0
04.06.2020 06:00:00 10,4 7,5 9,9 14,8 18,8 15,3 4 2 9 5 ENE 999,4 50 0 0,0
04.06.2020 05:00:00 8,6 6,2 7,2 14,5 19,2 15,2 8 4 11 6 E 999,9 51 0 0,0
04.06.2020 04:00:00 8,7 6,8 7,0 15,1 19,8 15,2 5 3 9 5 ENE 1000,3 49 0 0,0
04.06.2020 03:00:00 9,2 7,3 6,6 15,9 20,3 15,2 3 2 6 3 NNE 1000,9 44 0 0,0
04.06.2020 02:00:00 9,8 6,9 8,0 16,7 20,9 15,2 3 1 8 4 NNE 1001,2 48 0 0,0
04.06.2020 01:00:00 11,2 7,4 8,4 17,7 21,5 15,2 4 2 10 6 ENE 1001,8 54 0 0,0
04.06.2020 00:00:00 12,9 8,7 10,3 18,9 22,1 15,2 6 4 11 6 NNE 1002,4 61 0 0,0
03.06.2020 23:00:00 12,6 7,6 11,1 20,2 22,8 15,1 4 2 13 7 WNW 1003,0 64 0 0,0
03.06.2020 22:00:00 15,4 7,7 12,7 21,8 23,4 15,1 3 1 11 6 SE 1003,4 45 0 0,0
03.06.2020 21:00:00 17,5 6,1 16,3 23,8 23,9 15,1 8 5 13 7 E 1003,3 52 0 0,0
03.06.2020 20:00:00 20,1 5,1 19,1 26,3 24,2 15,1 10 5 17 9 E 1003,2 63 42 0,0
03.06.2020 19:00:00 22,6 2,5 27,5 28,9 24,2 15,1 11 6 22 12 NE 1003,5 75 60 0,0
03.06.2020 18:00:00 23,2 2,6 28,0 30,3 24,0 15,1 12 7 22 12 NE 1003,5 75 60 0,0
03.06.2020 17:00:00 23,2 0,9 29,3 31,6 23,5 15,1 12 7 26 14 NNE 1004,1 73 60 0,0
03.06.2020 16:00:00 22,8 0,8 30,2 32,1 22,9 15,1 9 5 24 13 NE 1004,8 75 60 0,0
03.06.2020 15:00:00 23,3 2,1 31,6 31,9 22,1 15,0 9 5 19 10 ENE 1005,7 60 60 0,0
03.06.2020 14:00:00 22,8 2,5 30,4 30,9 21,1 15,0 8 5 30 16 NE 1006,3 68 60 0,0
03.06.2020 13:00:00 20,9 3,9 27,6 29,3 20,2 15,0 5 3 18 10 ESE 1006,9 46 60 0,0
03.06.2020 12:00:00 19,8 3,1 26,8 27,2 19,3 15,0 10 6 22 12 E 1007,7 64 60 0,0
03.06.2020 11:00:00 18,5 3,1 23,7 24,7 18,5 15,0 8 4 18 10 ENE 1008,3 45 60 0,0
03.06.2020 10:00:00 16,7 5,6 20,7 21,9 17,9 14,9 7 4 14 8 SE 1008,6 56 60 0,0
03.06.2020 09:00:00 14,8 5,6 17,9 18,9 17,6 14,9 6 3 12 6 ESE 1009,0 49 60 0,0
03.06.2020 08:00:00 13,1 6,5 14,8 16,0 17,6 14,9 5 3 11 6 E 1009,1 73 60 0,0
03.06.2020 07:00:00 10,5 7,4 9,6 14,0 18,0 14,9 4 2 10 6 NE 1009,3 43 60 0,0
03.06.2020 06:00:00 9,3 7,5 8,2 14,1 18,4 14,8 7 4 11 6 NE 1009,5 41 8 0,0
03.06.2020 05:00:00 8,8 7,8 6,9 14,4 18,9 14,8 6 3 11 6 N 1009,6 24 0 0,0
03.06.2020 04:00:00 9,4 8,4 6,9 15,1 19,4 14,8 5 3 9 5 N 1010,0 29 0 0,0
03.06.2020 03:00:00 10,8 8,7 8,6 16,0 19,9 14,8 6 3 16 9 NNE 1010,5 44 0 0,0
03.06.2020 02:00:00 11,5 9,5 10,1 16,8 20,4 14,8 9 5 13 7 N 1011,1 47 0 0,0
03.06.2020 01:00:00 12,5 9,7 10,9 17,7 21,0 14,8 8 4 16 8 N 1011,6 55 0 0,0
03.06.2020 00:00:00 13,6 9,2 11,6 18,8 21,6 14,7 8 5 12 7 N 1011,8 59 0 0,0
02.06.2020 23:00:00 15,6 9,2 13,4 20,1 22,2 14,7 7 4 15 8 N 1012,0 71 0 0,0
02.06.2020 22:00:00 17,4 8,9 15,9 21,6 22,8 14,7 10 5 23 12 N 1012,1 72 0 0,0
02.06.2020 21:00:00 19,5 8,4 18,6 23,7 23,2 14,7 16 9 33 18 NNE 1012,2 70 40 0,0
02.06.2020 20:00:00 22,2 9,5 23,7 25,8 23,5 14,7 16 9 28 15 N 1012,2 68 46 0,0
02.06.2020 19:00:00 23,6 10,1 24,5 27,8 23,6 14,7 13 7 35 19 NNE 1012,4 68 32 0,0
02.06.2020 18:00:00 25,5 7,8 28,8 30,3 23,4 14,7 18 10 45 24 N 1012,7 48 60 0,0
02.06.2020 17:00:00 26,6 6,8 31,2 31,0 22,9 14,7 22 12 42 23 N 1013,1 75 60 0,0
02.06.2020 16:00:00 26,3 7,4 31,4 30,7 22,4 14,7 24 13 46 25 NNW 1014,1 75 48 0,0
02.06.2020 15:00:00 26,1 7,7 30,1 31,5 21,6 14,7 19 11 42 23 N 1014,9 59 57 0,0
02.06.2020 14:00:00 25,6 8,5 32,0 30,9 20,7 14,6 25 14 42 23 NNW 1015,7 56 60 0,0
02.06.2020 13:00:00 26,0 9,7 31,4 29,4 19,7 14,6 23 12 36 19 NW 1016,6 58 60 0,0
02.06.2020 12:00:00 24,5 8,8 29,7 27,6 18,7 14,6 18 10 34 19 NNW 1017,4 75 60 0,0
02.06.2020 11:00:00 22,9 8,5 27,3 25,0 17,8 14,6 16 8 26 14 NNW 1018,3 53 60 0,0
02.06.2020 10:00:00 20,8 8,7 24,8 22,2 17,1 14,6 10 6 20 11 NW 1019,2 75 60 0,0
02.06.2020 09:00:00 18,7 7,1 20,9 19,0 16,6 14,5 6 4 13 7 NNW 1019,9 71 60 0,0
02.06.2020 08:00:00 16,5 6,5 17,9 15,8 16,6 14,5 8 4 15 8 NNW 1020,2 62 60 0,0
02.06.2020 07:00:00 12,9 7,1 12,0 13,4 16,8 14,5 9 5 11 6 WNW 1020,6 57 60 0,0
02.06.2020 06:00:00 10,2 6,8 8,3 13,1 17,2 14,5 9 5 13 7 WNW 1021,1 75 8 0,0
02.06.2020 05:00:00 8,4 6,2 7,2 13,3 17,6 14,5 14 7 15 8 NW 1021,3 71 0 0,0
02.06.2020 04:00:00 8,7 6,5 6,9 13,8 18,1 14,5 10 6 12 7 WNW 1021,3 59 0 0,0
02.06.2020 03:00:00 9,2 5,6 6,9 14,4 18,6 14,4 9 5 10 6 NW 1021,8 72 0 0,0
02.06.2020 02:00:00 9,0 5,7 6,9 15,2 19,2 14,4 10 5 15 8 NW 1022,5 66 0 0,0
02.06.2020 01:00:00 11,4 6,1 10,1 16,1 19,7 14,4 9 5 18 10 NNW 1023,1 75 0 0,0
02.06.2020 00:00:00 12,2 5,9 10,2 17,1 20,4 14,4 11 6 19 10 NNE 1022,9 75 0 0,0
01.06.2020 23:00:00 13,2 6,2 11,0 18,4 21,0 14,4 11 6 16 8 N 1023,0 75 0 0,0
01.06.2020 22:00:00 14,8 6,4 13,1 20,0 21,6 14,4 10 6 22 12 N 1023,1 75 0 0,0
01.06.2020 21:00:00 16,7 6,2 15,6 22,0 22,1 14,4 15 8 28 15 N 1022,8 75 40 0,0
01.06.2020 20:00:00 18,7 5,8 20,3 24,4 22,4 14,4 19 11 38 20 N 1023,0 58 60 0,0
01.06.2020 19:00:00 20,2 6,1 23,2 26,7 22,5 14,4 24 13 38 20 N 1022,9 59 60 0,0
01.06.2020 18:00:00 21,5 6,2 25,1 28,5 22,3 14,4 23 13 48 26 N 1022,9 58 60 0,0
01.06.2020 17:00:00 22,5 7,1 27,3 29,7 21,9 14,4 31 17 44 24 NNE 1023,0 70 60 0,0
01.06.2020 16:00:00 22,7 8,4 28,2 30,6 21,2 14,4 24 13 37 20 N 1023,3 52 60 0,0
01.06.2020 15:00:00 23,7 5,4 30,0 30,4 20,4 14,4 18 10 41 22 NE 1023,6 44 60 0,0
01.06.2020 14:00:00 23,1 4,4 30,0 29,5 19,4 14,3 19 11 37 20 NE 1024,1 57 60 0,0
01.06.2020 13:00:00 22,5 2,4 28,3 28,0 18,4 14,3 18 10 38 20 NNE 1024,4 60 60 0,0
01.06.2020 12:00:00 21,5 2,9 27,5 25,9 17,4 14,3 21 11 34 19 NE 1024,5 46 60 0,0
01.06.2020 11:00:00 20,2 4,5 25,7 23,3 16,5 14,3 20 11 32 17 NNE 1024,8 62 60 0,0
01.06.2020 10:00:00 18,3 6,0 22,3 20,4 15,8 14,3 11 6 25 13 NNE 1024,9 65 60 0,0
01.06.2020 09:00:00 15,6 7,1 18,4 17,2 15,4 14,3 12 7 23 13 NE 1025,1 43 60 0,0
01.06.2020 08:00:00 13,2 8,0 14,2 14,0 15,3 14,2 14 8 25 13 N 1024,8 63 60 0,0
01.06.2020 07:00:00 10,6 7,9 9,4 11,7 15,6 14,2 9 5 16 9 N 1024,6 35 60 0,0
01.06.2020 06:00:00 8,6 7,2 7,3 11,5 16,0 14,2 8 4 14 8 N 1024,4 37 9 0,0
01.06.2020 05:00:00 7,3 6,2 6,0 11,6 16,4 14,2 8 5 12 6 NNW 1024,4 30 0 0,0
01.06.2020 04:00:00 7,7 6,5 6,1 12,2 16,9 14,2 6 4 14 7 N 1024,5 32 0 0,0
01.06.2020 03:00:00 7,9 6,4 6,3 12,8 17,4 14,2 8 4 16 9 N 1024,4 39 0 0,0
01.06.2020 02:00:00 8,3 6,5 6,6 13,5 17,9 14,2 8 5 15 8 NNW 1024,4 41 0 0,0
01.06.2020 01:00:00 8,6 6,5 7,0 14,4 18,5 14,2 9 5 21 12 NNW 1024,4 48 0 0,0
01.06.2020 00:00:00 10,0 6,8 8,5 15,4 19,1 14,2 12 6 23 12 N 1024,1 50 0 0,0
31.05.2020 23:00:00 11,2 7,1 10,1 16,6 19,7 14,2 16 9 24 13 N 1023,6 61 0 0,0
31.05.2020 22:00:00 12,2 6,8 11,1 18,1 20,4 14,2 10 6 27 14 N 1023,4 64 0 0,0
31.05.2020 21:00:00 14,5 5,4 13,4 20,1 20,9 14,2 17 9 38 21 N 1022,6 61 38 0,0
31.05.2020 20:00:00 16,5 5,2 18,1 22,7 21,2 14,2 27 15 44 24 N 1022,0 60 60 0,0
31.05.2020 19:00:00 18,4 6,3 20,9 24,9 21,3 14,1 23 13 48 26 N 1021,7 51 60 0,0
31.05.2020 18:00:00 19,4 7,6 22,7 26,5 21,1 14,1 27 14 46 25 N 1021,4 65 60 0,0
31.05.2020 17:00:00 19,6 8,5 24,1 27,7 20,7 14,1 26 14 44 24 N 1021,3 73 60 0,0
31.05.2020 16:00:00 20,1 8,2 25,0 28,4 20,1 14,1 24 13 46 25 N 1021,1 70 60 0,0
31.05.2020 15:00:00 20,7 8,6 26,0 28,3 19,3 14,1 22 12 45 24 N 1021,1 59 60 0,0
31.05.2020 14:00:00 19,9 7,6 25,8 27,5 18,4 14,1 27 15 42 23 N 1021,2 68 60 0,0
31.05.2020 13:00:00 20,2 6,9 26,3 26,1 17,5 14,1 27 15 44 24 NNE 1021,4 48 60 0,0
31.05.2020 12:00:00 19,1 7,5 23,9 24,0 16,6 14,1 21 11 41 22 N 1021,4 56 60 0,0
31.05.2020 11:00:00 17,3 8,4 21,6 21,1 15,9 14,1 22 12 40 22 N 1021,5 55 60 0,0
31.05.2020 10:00:00 15,8 9,2 19,2 17,5 15,6 14,0 20 11 35 19 N 1021,7 47 22 0,0
31.05.2020 09:00:00 13,1 8,7 14,4 15,3 15,4 14,0 16 9 31 17 N 1021,7 52 0 0,0
31.05.2020 08:00:00 12,6 8,6 13,7 14,5 15,4 14,0 18 10 30 16 N 1021,7 48 11 0,0
31.05.2020 07:00:00 11,1 7,9 11,4 13,1 15,5 14,0 11 6 22 12 N 1021,5 45 0 0,0
31.05.2020 06:00:00 9,7 7,3 9,6 12,6 15,8 14,0 13 7 19 10 NNW 1021,5 62 0 0,0
31.05.2020 05:00:00 9,4 6,9 8,7 12,6 16,1 14,0 13 7 24 13 NW 1021,6 61 0 0,0
31.05.2020 04:00:00 10,1 6,7 9,4 13,1 16,5 14,0 11 6 22 12 NNW 1022,1 70 0 0,0
31.05.2020 03:00:00 9,7 7,0 9,1 13,4 16,8 14,0 14 8 19 11 NNW 1022,8 55 0 0,0
31.05.2020 02:00:00 9,8 6,5 9,1 13,8 17,3 14,0 11 6 18 10 N 1023,2 57 0 0,0
31.05.2020 01:00:00 9,8 7,1 9,1 14,4 17,7 13,9 10 5 23 13 N 1023,5 53 0 0,0
31.05.2020 00:00:00 10,0 7,1 9,3 15,0 18,3 13,9 12 6 23 12 N 1023,7 59 0 0,0
30.05.2020 23:00:00 10,7 6,5 9,7 15,9 18,9 13,9 15 8 25 14 N 1023,6 72 0 0,0
30.05.2020 22:00:00 11,6 6,0 10,5 17,2 19,4 13,9 11 6 31 17 N 1023,4 66 0 0,0
30.05.2020 21:00:00 12,8 5,9 11,8 19,0 19,9 13,9 16 9 42 23 N 1023,1 72 0 0,0
30.05.2020 20:00:00 14,3 6,2 14,8 21,2 20,2 13,9 19 11 39 21 N 1023,1 64 39 0,0
30.05.2020 19:00:00 15,2 5,9 16,8 23,6 20,3 13,9 24 13 37 20 N 1022,9 47 48 0,0
30.05.2020 18:00:00 16,8 5,2 20,7 25,2 20,1 13,9 22 12 38 21 N 1022,6 70 58 0,0
30.05.2020 17:00:00 17,1 3,8 21,4 26,0 19,7 13,9 22 12 42 23 N 1023,1 67 60 0,0
30.05.2020 16:00:00 17,7 4,3 23,6 26,5 19,1 13,9 24 13 44 24 N 1023,3 63 59 0,0
30.05.2020 15:00:00 16,8 3,6 22,3 25,8 18,5 13,9 25 13 45 24 N 1023,8 69 58 0,0
30.05.2020 14:00:00 16,3 3,9 20,0 24,0 18,0 13,9 27 15 45 24 N 1024,3 64 24 0,0
30.05.2020 13:00:00 17,2 3,5 23,0 24,4 17,3 13,9 26 14 47 25 N 1024,3 75 42 0,0
30.05.2020 12:00:00 17,4 4,3 23,5 23,6 16,5 13,9 25 13 43 23 N 1024,7 53 50 0,0
30.05.2020 11:00:00 17,1 4,2 21,2 21,0 15,7 13,8 24 13 45 24 NNE 1025,1 63 47 0,0
30.05.2020 10:00:00 15,7 3,0 19,6 19,2 15,1 13,8 24 13 37 20 NNE 1025,5 56 59 0,0
30.05.2020 09:00:00 15,0 3,9 17,7 16,5 14,7 13,8 18 10 34 18 NE 1026,0 58 60 0,0
30.05.2020 08:00:00 12,7 6,3 13,9 13,5 14,7 13,8 16 9 25 13 N 1026,1 55 32 0,0
30.05.2020 07:00:00 10,7 6,0 10,4 11,7 14,9 13,8 9 5 17 9 NNW 1026,3 75 11 0,0
30.05.2020 06:00:00 6,9 4,8 5,3 11,0 15,2 13,8 3 2 13 7 NW 1026,6 27 0 0,0
30.05.2020 05:00:00 7,5 4,7 5,4 11,3 15,6 13,7 9 5 14 8 N 1026,9 38 0 0,0
30.05.2020 04:00:00 8,2 4,3 7,6 12,0 15,9 13,7 10 5 15 8 N 1027,0 63 0 0,0
30.05.2020 03:00:00 7,9 3,7 5,9 11,8 16,4 13,7 11 6 18 10 NNE 1027,1 60 0 0,0
30.05.2020 02:00:00 8,3 4,5 6,2 12,5 17,0 13,7 12 7 18 10 NNE 1027,0 69 0 0,0
30.05.2020 01:00:00 8,5 4,6 6,1 13,4 17,5 13,7 11 6 18 10 NNE 1026,8 71 0 0,0
30.05.2020 00:00:00 9,7 5,3 7,7 14,4 18,1 13,7 11 6 21 11 N 1026,8 64 0 0,0
29.05.2020 23:00:00 10,8 5,8 8,8 15,6 18,7 13,7 13 7 20 11 N 1026,7 62 0 0,0
29.05.2020 22:00:00 12,0 5,9 10,4 17,2 19,3 13,7 10 5 28 15 N 1027,0 55 0 0,0
29.05.2020 21:00:00 14,0 5,7 13,1 19,1 19,8 13,7 19 10 32 17 NNE 1026,6 55 36 0,0
29.05.2020 20:00:00 16,1 3,5 17,7 21,2 20,0 13,7 19 10 39 21 NNE 1026,6 75 60 0,0
29.05.2020 19:00:00 17,7 4,1 21,0 23,2 20,1 13,7 23 12 39 21 NNE 1026,5 51 56 0,0

tt = temperature
td = dewpoint
tt 5cm = temperature 5cm
tt -5cm = temperature -5cm
tt -20cm = temperature -20cm
tt -100cm = temperature -100cm
ff = wind speed
fx = gusts
dd = wind direction
ppp = reduced air pressure
vv = visibility
sd = sunshine duration
rr = precipitation

Next stations